Weather in Lingayen

Philippines     16°00′50″N   120°13′47″E
temp.,
°C
wind,
m/s
gust,
m/s
humid.,
%
clouds,
%
prec.,
mm/h
press.,
hPa
HPBL,
m
15 april, thu
thu1523:00+28w116369 0.0 1011180
02:00+27sse226866 0.0 1009115
05:00+26sse347499 0.0 1009198
08:00+28se446762 0.0 1011619
11:00+33se23523 0.0 10101054
14:00+31wnw895890 0.0 1008778
17:00+31nnw7762100 0.0 1007868
20:00+28wnw467024 0.0 1010447
16 april, fri
fri1623:00+28wsw116874 0.1 1011213
02:00+26se337945 1.8 1010207
05:00+26sse358298 0.2 1010227
08:00+29se466711 0.3 1011624
11:00+33se455198 0.1 10101062
14:00+32wnw6657100 0.4 1008845
17:00+30wnw4564100 0.8 1008641
20:00+27wsw2279100 9.9 101159
17 april, sat
sat1723:00+28sse2472100 4.2 1012210
02:00+26sse4774100 4.2 1010233
05:00+26se4680100 0.2 1010238
08:00+27se4572100 0.2 1012372
11:00+31ese2256100 0.0 1011880
14:00+32n535395 0.0 10081073
17:00+29nnw6768100 0.3 1008507
20:00+28nw577656 0.6 1010476
18 april, sun
sun1823:00+26wnw2383100 1.9 101196
02:00+26sse228391 2.9 100975
05:00+25se4685100 0.6 1009213
08:00+28se3469100 0.6 1010403
11:00+31ese3452100 0.0 1009976
14:00+32nw545388 0.0 10061205
17:00+29nw5665100 0.6 1006805
20:00+28wnw3472100 0.6 1008299
19 april, mon
mon1923:00+26s2277100 2.1 100874
02:00+25sse4578100 2.3 1007147
05:00+25se4576100 0.0 1007145
08:00+27se4466100 0.0 1008425
11:00+31nnw2251100 0.0 1007951
14:00+30nnw8861100 0.0 1005753
17:00+28nnw7769100 0.0 1005704
20:00+27nw5672100 0.0 1006471